Theta_e
306 306 305 305 305 305 305 304 304 304 304 304 304 304 304 303 303 303 303 303 303 303 303 303 302 302 302 302 301 301 300 300 300 300 300 300 300 300 300 300 300 300 300 300 300 300 300 300 300 300 300 300 300 300 299 299 299 299 298 298 297 296 295 294 294 294 294 295 295 295 296 296 296 296 296 296 297 297 297 298 298 298 297 297 298 298
305 305 305 304 304 304 304 304 304 304 304 304 303 303 303 303 303 303 303 303 302 302 302 302 302 302 302 302 302 301 301 301 301 301 301 300 300 300 300 300 300 300 300 300 300 300 300 300 300 300 299 299 299 299 298 298 298 297 296 295 294 293 292 292 292 292 293 293 294 295 295 295 295 295 296 296 296 296 296 297 297 297 297 297 297 297
304 304 304 304 304 304 303 303 303 303 303 303 303 303 303 303 303 302 302 302 302 302 301 301 301 301 301 301 301 301 301 301 301 301 301 301 300 300 300 300 300 300 300 300 300 300 299 299 299 299 298 298 297 297 296 295 295 294 293 292 292 291 291 290 290 290 290 291 292 293 294 294 295 295 295 295 295 295 295 296 296 296 296 296 296 296
304 304 303 303 303 303 303 303 303 303 302 302 302 302 302 302 302 302 301 301 301 301 301 300 300 300 300 300 300 300 300 300 300 300 300 300 300 300 299 299 299 299 299 299 298 298 298 298 297 297 296 296 295 294 294 293 292 291 291 290 290 290 289 289 289 289 289 289 290 291 292 293 293 294 294 294 294 294 294 294 295 295 295 295 295 295
303 303 303 302 302 302 302 302 302 302 302 302 302 301 301 301 301 301 300 300 300 300 300 299 299 299 299 299 299 299 299 299 299 299 299 299 298 298 298 298 298 297 297 297 296 296 296 295 295 295 294 293 293 292 291 291 290 289 289 288 288 288 288 288 288 288 289 289 289 290 290 291 292 292 292 292 292 292 293 293 293 293 293 294 294 294
302 302 302 302 302 302 302 302 301 301 301 301 301 301 300 300 300 299 299 299 299 298 298 298 298 298 298 298 297 297 297 297 297 297 297 296 296 296 296 296 295 295 294 294 294 293 293 293 292 292 292 291 291 290 290 289 289 288 287 287 287 287 287 288 288 288 288 289 289 289 289 290 290 290 290 290 290 290 290 291 291 291 291 291 292 292
302 302 301 301 301 301 301 301 301 301 300 300 300 299 299 299 298 298 298 297 297 297 296 296 296 296 296 295 295 295 295 295 294 294 294 294 294 293 293 293 292 292 292 291 291 291 291 290 290 290 290 289 289 289 288 288 287 287 287 286 286 286 287 287 287 287 288 289 289 289 289 289 289 289 289 289 289 289 289 289 289 289 289 289 290 290
301 301 301 301 300 300 300 300 300 300 299 299 298 298 297 297 297 296 296 295 295 295 294 294 294 293 293 293 293 293 292 292 292 292 292 291 291 291 291 290 290 290 289 289 289 289 289 288 288 288 288 288 288 287 287 287 286 286 286 286 286 286 286 286 286 286 287 288 288 289 289 289 289 288 288 288 288 288 288 288 288 288 288 288 288 289
301 300 300 300 300 300 299 299 299 299 298 297 297 296 296 295 295 294 293 293 293 292 292 292 292 291 291 291 291 290 290 290 290 290 290 289 289 289 289 289 288 288 288 288 288 288 287 287 287 287 287 287 286 286 286 286 286 286 286 285 285 285 285 285 285 285 286 286 287 287 288 288 288 288 287 287 287 287 287 287 287 287 287 288 288 289
300 300 300 299 299 299 298 298 297 297 296 295 295 294 294 293 292 292 291 291 291 291 291 290 290 290 290 290 289 289 289 289 289 288 288 288 288 288 287 287 287 287 287 287 287 287 287 287 287 286 286 286 286 286 286 286 286 285 285 285 285 285 285 285 285 285 285 285 286 286 287 287 287 287 287 287 287 287 287 287 287 287 287 288 288 289
299 299 299 298 298 297 296 296 295 294 294 293 293 292 291 291 291 290 290 290 290 290 289 289 289 289 289 289 288 288 288 288 288 287 287 287 287 287 287 287 287 287 286 286 286 286 287 287 286 286 286 286 286 286 285 285 285 285 285 285 285 285 285 285 285 285 285 285 285 285 286 286 286 286 286 287 287 287 287 287 287 287 288 288 288 289
298 298 297 297 296 295 294 293 292 292 291 291 290 290 290 290 290 289 289 289 289 289 288 288 288 288 288 288 288 287 287 287 287 287 287 287 287 287 287 287 287 287 287 286 287 287 287 287 287 286 286 286 286 285 285 285 285 285 285 285 285 285 285 285 285 285 285 285 285 285 286 286 286 286 286 287 287 287 287 287 288 288 288 288 288 289
297 296 295 294 293 292 291 290 290 290 289 289 289 289 289 289 289 288 288 288 288 288 288 288 287 287 287 287 287 287 287 287 287 287 287 287 287 287 287 287 286 286 286 286 286 286 286 286 286 286 286 285 285 285 285 285 285 286 286 286 285 285 285 285 285 285 285 285 286 286 286 286 286 286 287 287 287 287 287 288 288 288 288 289 289 289
294 292 291 290 290 289 289 289 288 288 288 288 288 288 288 288 287 287 287 287 287 287 287 287 287 287 287 287 287 287 286 286 286 286 286 286 286 286 286 286 286 286 286 286 286 286 286 286 286 286 286 285 285 285 285 286 286 286 286 286 286 286 286 286 286 286 286 286 286 286 286 286 286 287 287 287 287 287 288 288 288 288 288 288 289 289
290 289 289 288 288 288 287 287 287 287 287 287 287 287 287 287 287 287 287 287 287 286 286 286 286 286 286 286 286 286 286 286 286 286 286 286 286 286 286 286 286 286 286 286 286 286 286 286 285 285 285 285 285 286 286 286 286 286 286 286 286 286 286 286 286 286 286 286 286 287 287 287 287 287 287 287 287 288 288 288 288 288 288 289 289 289
288 288 287 287 287 287 287 287 287 287 287 286 286 286 286 286 286 286 286 286 286 286 286 285 285 285 285 286 286 286 286 286 285 285 285 285 285 285 285 285 285 285 285 285 285 285 285 285 285 285 285 286 286 286 286 286 286 286 286 286 286 286 286 286 287 287 287 287 287 287 287 287 287 287 287 287 288 288 288 288 288 289 289 289 289 289
288 287 287 287 287 286 287 286 286 286 286 286 286 286 285 285 285 285 285 285 285 285 285 285 285 285 285 286 286 286 285 285 285 285 285 285 285 285 285 285 285 285 285 285 285 285 285 285 285 285 286 286 286 287 287 287 287 287 287 287 287 287 287 287 287 287 287 287 287 287 287 287 287 287 288 288 288 288 288 288 289 289 289 289 289 289
287 287 287 287 286 286 286 286 286 285 285 285 285 285 285 285 285 285 285 285 285 285 284 284 285 285 284 285 285 285 285 285 285 285 285 284 284 284 285 285 285 285 285 285 285 285 285 285 285 286 286 287 287 287 287 287 287 287 287 287 287 287 287 287 287 287 287 287 287 287 287 287 288 288 288 288 288 288 289 289 289 289 289 289 289 289
287 287 286 286 286 286 286 286 285 285 285 285 285 285 285 285 285 285 285 285 285 284 284 284 284 284 284 284 284 284 284 284 284 284 284 284 284 284 285 285 285 285 285 285 285 285 285 285 286 286 287 287 287 287 287 287 287 287 287 287 287 287 287 287 287 287 287 287 287 288 288 288 288 288 288 288 288 289 289 289 289 289 289 289 289 289
287 286 286 286 286 286 286 285 285 285 285 285 285 285 285 285 285 285 285 284 284 284 284 284 284 284 284 284 284 284 284 284 284 284 284 284 284 285 285 285 285 285 285 285 286 286 286 286 286 287 287 287 288 288 288 288 288 287 287 287 287 287 287 287 287 287 288 288 288 288 288 288 288 288 288 289 289 289 289 289 289 289 289 289 289 289
286 286 286 286 285 285 285 285 285 286 285 285 285 285 285 285 284 284 284 284 284 284 284 284 284 284 284 284 284 284 284 284 284 284 284 284 285 285 285 285 286 286 286 286 286 286 286 287 287 287 288 288 288 288 288 288 288 287 287 287 287 287 287 288 288 288 288 288 288 288 288 288 288 288 289 289 289 289 289 289 289 289 289 289 289 289
286 286 286 285 285 285 285 285 285 285 285 285 285 285 284 284 284 284 284 284 284 284 284 284 284 284 284 284 283 283 283 283 284 284 284 285 285 285 286 286 286 286 286 286 286 287 287 287 287 288 288 288 288 288 288 288 288 288 288 288 288 288 288 288 288 288 288 288 288 288 288 288 289 289 289 289 289 289 289 289 289 289 289 289 289 289
286 285 285 285 285 285 285 285 285 285 285 285 285 284 284 284 284 284 284 284 283 283 283 283 284 284 284 284 284 283 283 283 284 284 284 285 285 285 286 286 286 286 287 287 287 287 287 287 287 288 288 288 288 288 288 288 288 288 288 288 288 288 288 288 288 288 288 288 288 288 288 289 289 289 289 289 289 289 289 289 289 289 289 289 289 289
285 285 285 285 285 285 285 285 285 285 285 285 284 284 284 284 284 284 284 283 283 283 283 283 284 284 284 284 284 284 283 283 284 284 284 285 285 285 286 286 286 287 287 287 287 287 287 287 288 288 288 288 288 288 288 288 288 288 288 288 288 288 288 288 288 288 288 288 288 288 289 289 289 289 289 289 289 289 289 289 289 289 289 289 289 290
285 285 285 285 285 285 285 285 285 285 285 284 284 284 284 284 284 284 284 283 283 283 283 283 283 283 284 284 283 283 283 283 284 284 284 285 285 286 286 286 286 287 287 287 287 287 288 288 288 288 288 288 288 288 288 288 288 288 288 288 288 288 288 288 288 288 288 288 288 288 288 288 288 288 289 289 289 289 289 289 289 289 289 289 289 290
285 285 285 285 285 285 285 285 284 284 284 284 284 284 284 284 284 284 283 283 283 283 283 283 283 283 283 283 283 283 283 284 284 284 285 285 285 286 286 286 287 287 287 287 288 288 288 288 288 288 288 288 288 288 288 288 288 288 288 288 288 288 288 288 288 288 288 288 288 288 288 288 288 289 289 289 289 289 289 289 289 289 289 289 290 290
285 285 285 285 285 285 284 284 284 284 284 284 284 284 284 283 283 283 283 283 283 283 283 283 283 283 283 283 283 283 283 284 284 285 285 285 285 286 286 286 287 287 287 288 288 288 288 288 288 288 288 288 288 288 288 288 288 288 288 288 288 288 288 288 288 288 288 288 288 288 288 289 289 289 289 289 289 289 289 289 289 289 289 290 290 290
285 285 285 285 285 285 285 285 285 284 284 284 284 284 283 283 283 283 282 282 282 282 282 282 282 282 283 282 282 283 283 283 284 285 285 285 286 286 286 286 287 287 288 288 288 288 288 288 288 288 288 288 288 288 288 288 288 288 288 288 288 288 288 288 288 288 288 288 288 288 289 289 289 289 289 289 289 289 289 289 289 289 290 290 290 290
285 285 285 285 285 285 285 285 285 285 284 284 284 284 283 283 283 283 282 282 282 282 282 282 282 282 282 282 282 283 283 284 285 285 285 286 286 286 286 286 287 287 288 288 288 288 288 288 288 288 288 288 288 288 288 288 288 288 288 288 288 288 288 288 288 288 288 288 288 289 289 289 289 289 289 289 289 289 289 289 289 290 290 290 290 290
285 284 284 285 285 285 285 285 285 285 284 284 284 283 283 283 283 283 282 282 282 282 282 282 282 282 282 282 282 283 283 284 285 285 286 286 286 286 286 286 287 287 287 288 288 288 288 288 288 288 288 288 288 288 288 288 288 288 288 288 288 288 288 288 288 288 288 289 289 289 289 289 289 289 289 289 289 289 289 289 289 290 290 290 290 290
284 284 284 284 284 284 284 284 284 284 284 284 284 283 283 283 283 283 283 283 282 282 282 282 282 282 282 282 282 283 284 284 285 286 286 286 286 286 286 286 287 287 287 287 287 287 287 287 288 288 288 288 288 288 288 288 288 288 288 288 288 288 288 288 288 289 289 289 289 289 289 289 289 289 289 289 289 289 289 289 290 290 290 290 290 290
283 283 283 284 284 284 284 284 284 284 284 284 284 283 283 283 283 283 283 283 282 282 282 282 282 282 282 282 283 283 284 284 285 286 286 286 286 286 287 287 287 287 287 287 287 286 286 287 287 288 288 288 288 288 288 288 288 288 288 288 288 289 289 289 289 289 289 289 289 289 289 289 289 289 289 289 289 289 290 290 290 290 290 290 290 290
284 283 283 284 284 284 284 284 284 284 284 284 283 283 283 283 283 283 283 283 283 282 282 282 282 282 282 283 283 284 284 284 285 286 286 286 286 286 287 287 287 287 287 287 287 287 286 287 287 288 288 288 288 288 288 288 288 288 288 288 288 288 288 289 289 289 289 289 289 289 289 289 289 289 289 289 289 289 290 290 290 290 290 290 290 290
284 284 284 284 284 284 284 284 284 284 284 284 284 283 283 283 283 283 283 283 283 282 282 282 282 283 283 284 284 285 285 285 285 285 286 286 286 286 287 287 286 286 286 286 286 287 287 287 287 288 288 288 288 288 288 288 288 288 288 288 288 288 288 288 288 289 289 289 289 289 289 289 289 289 289 289 289 289 289 289 289 289 289 289 290 290
284 284 284 284 284 284 284 284 284 284 284 284 284 284 283 283 283 283 283 283 283 283 283 283 283 284 284 284 285 285 285 285 285 285 286 286 286 286 286 286 286 286 286 286 286 286 287 287 287 287 287 288 288 288 288 288 288 288 288 288 288 288 288 288 288 288 288 288 289 289 289 289 289 289 289 289 289 289 289 289 289 289 289 289 289 289
284 284 284 284 284 284 284 284 284 284 284 284 284 284 284 283 283 283 283 283 283 283 283 283 284 284 285 285 285 286 286 285 285 285 286 286 286 286 286 286 286 286 286 286 286 286 286 286 287 287 287 287 288 288 287 288 288 288 288 288 288 288 288 288 288 288 288 288 288 288 288 288 288 288 288 288 289 289 289 289 289 289 289 289 289 289
284 284 284 284 284 284 284 284 284 284 284 284 284 284 284 284 283 283 283 283 283 283 283 284 284 284 285 285 285 286 286 286 286 286 286 286 286 286 286 286 286 286 286 286 286 286 286 286 286 286 287 287 287 287 287 287 288 288 288 288 288 288 288 288 288 288 288 288 288 288 288 288 288 288 288 288 288 288 288 288 288 288 288 288 288 288
284 284 284 284 284 285 284 284 284 284 284 284 284 284 284 284 283 283 283 283 283 283 284 284 284 285 285 285 285 285 286 286 286 286 286 286 286 286 286 286 286 286 286 286 286 286 286 285 285 286 286 286 286 286 287 287 288 288 288 288 288 288 288 288 288 288 288 288 288 288 288 288 288 288 288 288 288 288 288 288 288 288 288 288 288 288
284 284 284 284 285 285 285 284 284 284 284 284 284 284 284 284 283 283 283 283 283 283 284 284 285 285 285 285 285 285 285 286 286 286 286 286 286 286 286 286 286 286 286 286 286 286 286 286 285 285 285 286 286 287 287 287 288 288 288 288 288 288 288 288 288 288 288 288 288 288 288 287 287 287 287 287 288 287 288 287 287 287 287 287 287 287
284 284 284 284 285 285 285 284 284 284 284 284 284 284 284 284 284 283 283 283 283 284 284 284 285 285 285 285 285 285 285 285 285 285 286 286 286 286 286 286 286 286 286 286 286 286 286 286 286 286 286 286 286 286 286 287 287 287 288 288 288 288 288 288 288 288 288 288 288 288 288 287 287 287 287 287 287 287 287 287 287 287 287 287 287 287
284 284 284 284 285 285 284 284 284 284 284 284 284 284 284 284 283 283 283 283 283 284 284 285 285 285 285 285 285 285 285 285 285 286 286 286 286 286 286 286 287 287 287 286 286 286 286 286 286 286 286 286 286 286 286 286 287 287 287 287 287 288 288 288 288 288 288 288 288 288 288 287 287 287 287 287 287 287 287 287 287 287 287 287 287 287
284 284 284 284 284 284 284 284 284 284 284 284 284 284 283 283 283 283 283 283 283 284 284 285 285 285 285 285 285 285 285 285 285 285 286 286 286 286 286 286 286 287 287 286 286 286 286 286 286 286 286 286 285 285 286 286 286 286 286 286 287 287 287 287 287 287 287 287 287 287 287 287 287 287 287 287 287 287 287 287 287 287 287 287 287 287
284 284 284 284 284 284 284 284 284 284 284 284 284 284 283 283 283 283 283 283 284 284 285 285 285 285 285 285 285 285 285 285 285 285 286 286 286 286 286 286 286 286 286 286 286 286 286 286 286 286 286 286 285 285 286 286 286 286 286 286 286 286 287 287 287 286 287 287 287 287 287 287 287 287 287 287 287 287 287 287 287 287 287 287 287 287
284 284 284 284 284 284 284 284 284 284 284 284 284 283 283 283 283 283 283 284 284 284 285 285 285 285 285 285 285 285 285 285 285 285 285 286 286 286 286 286 286 286 286 286 286 286 286 286 286 286 285 285 285 285 286 286 286 286 286 286 285 285 286 286 286 286 287 287 287 287 286 286 286 287 287 287 287 287 287 287 287 287 287 287 287 287
284 284 284 284 284 284 284 284 284 284 284 284 283 283 283 283 283 283 284 284 284 285 285 285 285 285 285 285 285 285 285 285 285 285 285 285 285 285 286 286 286 286 286 286 286 286 286 286 286 285 285 285 285 285 286 286 286 286 286 286 285 286 286 286 286 286 286 286 286 286 286 286 286 286 286 287 287 287 287 287 287 287 287 287 288 288
283 283 283 283 284 284 284 284 284 284 284 283 283 283 283 283 283 284 284 284 285 285 285 285 285 285 285 285 285 285 285 285 285 285 285 285 285 285 286 286 286 286 286 286 286 286 286 286 285 285 285 285 285 286 286 285 285 285 286 285 285 285 286 286 286 286 286 286 286 286 286 285 286 286 286 286 286 287 287 287 287 287 287 287 287 287
283 283 283 283 283 283 283 284 284 284 284 283 283 283 283 283 284 284 284 285 285 285 285 285 285 285 285 285 285 285 285 285 285 285 285 285 285 285 285 285 286 286 286 286 286 286 286 286 285 285 285 285 285 285 285 285 285 285 285 285 285 285 286 286 286 285 285 285 285 285 285 285 285 285 285 285 286 286 286 286 286 286 287 287 287 287
284 283 283 283 283 283 283 283 284 284 284 284 283 283 283 284 284 284 284 285 285 285 285 285 285 285 285 285 285 284 285 285 285 285 285 285 285 285 285 285 285 285 285 285 286 285 285 285 286 285 285 285 285 285 285 285 285 285 285 285 285 285 285 286 286 285 285 285 285 285 285 285 285 285 285 285 285 286 286 286 286 286 286 286 286 287
284 284 283 283 283 283 283 283 284 284 284 284 284 283 284 284 284 284 285 285 285 285 285 285 285 285 285 285 284 284 285 285 285 285 285 285 285 285 285 285 285 285 285 285 285 285 285 285 286 286 285 285 285 285 285 285 285 285 285 285 285 285 285 285 285 285 285 285 285 285 285 285 285 284 284 284 285 285 286 286 286 286 286 286 286 286
284 283 283 283 283 283 283 284 284 284 284 284 284 284 284 284 284 285 285 285 285 285 285 285 285 285 285 284 284 284 285 285 285 285 285 285 285 285 285 285 285 285 285 285 285 285 285 285 285 285 285 285 285 285 285 285 285 285 285 285 285 285 285 285 285 285 285 285 285 285 285 285 285 284 284 284 284 285 285 285 285 285 286 285 286 286
283 283 283 283 283 283 283 284 284 284 284 284 284 284 284 284 284 285 285 285 285 285 285 285 285 285 285 284 284 284 285 285 285 285 285 285 285 285 285 285 285 285 285 285 285 284 284 284 284 284 285 285 285 285 285 285 284 284 284 284 284 284 284 284 284 284 284 284 284 284 284 284 284 284 284 283 283 284 284 285 285 285 285 285 285 285
Wind_Speed
9 9 8 8 7 7 7 6 6 5 5 5 5 5 5 5 5 5 5 4 4 4 4 4 4 5 6 6 8 9 10 11 13 14 15 16 16 17 17 18 18 18 17 17 17 17 17 17 17 17 17 17 17 18 18 18 17 17 17 17 16 16 15 15 14 13 12 12 12 12 12 13 13 14 16 17 18 18 17 17 18 18 19 20 19 19
7 7 7 7 6 6 5 5 5 4 4 4 5 5 5 5 5 5 5 5 5 6 6 6 6 6 7 7 7 7 8 8 9 10 11 12 13 13 14 14 14 14 14 14 14 14 15 15 15 15 16 16 16 17 17 17 17 17 16 16 15 15 15 15 14 14 14 14 15 15 15 15 15 16 16 17 18 18 18 18 19 19 19 19 19 19
6 6 6 5 5 5 5 5 5 4 4 5 5 5 5 5 6 6 6 6 7 7 7 7 8 8 9 9 9 9 10 10 10 11 11 12 13 13 14 14 14 14 15 15 15 15 15 16 16 16 16 16 17 17 17 17 16 16 16 15 15 15 14 14 14 14 15 16 16 16 16 16 16 17 17 18 18 19 19 20 20 20 19 20 20 20
5 5 5 4 4 4 4 5 5 5 5 5 5 6 6 6 6 7 7 7 8 8 8 9 9 9 10 10 10 11 11 11 12 12 13 13 14 14 15 15 15 15 15 15 15 15 16 16 16 16 16 16 17 17 17 17 16 16 16 15 15 14 14 13 13 13 14 15 16 17 17 17 18 18 18 18 19 20 20 20 20 20 21 21 21 21
4 4 4 4 4 4 5 5 5 5 6 6 6 6 7 7 8 8 9 9 9 9 10 10 10 10 11 11 11 12 12 12 13 13 14 14 15 15 15 16 16 16 16 15 15 16 16 16 16 16 16 16 16 16 16 16 16 16 16 16 15 15 14 13 13 13 14 15 15 16 16 17 18 18 19 19 19 20 20 20 21 21 21 22 22 21
4 4 4 4 4 4 5 6 6 6 7 7 7 8 8 8 9 9 10 10 10 11 11 11 11 11 12 12 12 12 13 13 13 14 14 15 15 16 16 16 16 16 16 16 15 15 16 16 16 16 16 16 16 16 16 16 16 16 16 16 16 16 15 15 14 14 14 14 15 15 16 16 17 17 18 18 18 19 19 19 20 20 21 21 21 20
4 4 4 4 5 6 6 6 7 7 7 8 8 9 9 10 10 10 10 11 11 11 12 12 12 12 12 13 13 13 13 13 14 14 14 15 15 16 16 16 16 16 16 16 16 16 16 16 16 15 16 16 16 16 16 16 16 16 17 17 17 17 17 16 15 15 15 15 15 16 16 16 16 17 17 17 17 17 18 18 18 18 18 18 18 18
4 5 5 5 6 7 7 8 8 8 8 9 9 10 10 11 11 11 11 11 12 12 12 12 13 13 13 13 13 13 13 13 14 14 15 15 15 16 16 16 16 16 16 16 16 16 16 16 16 15 15 15 16 16 16 16 17 17 18 18 18 18 18 17 17 16 16 16 16 17 17 17 17 17 17 17 17 17 17 17 16 16 15 15 15 15
5 5 6 6 7 7 8 9 10 10 9 9 9 9 10 11 11 12 12 12 12 12 12 12 12 13 13 12 12 13 13 13 14 14 15 15 16 16 16 17 17 17 17 17 17 17 17 17 16 16 15 15 15 15 16 16 17 17 18 19 19 19 19 18 18 17 17 17 17 17 17 17 17 17 17 16 16 16 15 15 14 14 13 12 11 11
6 6 7 8 9 9 9 10 11 11 10 10 10 10 10 10 11 11 11 12 12 12 12 12 12 13 13 13 13 13 13 14 14 14 15 16 16 17 17 17 17 17 18 18 18 18 18 17 17 16 16 15 15 15 16 16 17 17 18 18 19 19 19 19 18 18 17 17 17 17 17 17 16 16 16 16 15 14 14 14 13 12 11 10 9 9
7 8 8 8 9 10 10 10 11 11 10 10 10 11 11 10 10 9 9 11 13 13 12 12 12 13 13 14 14 14 14 15 15 15 16 16 17 17 17 18 18 18 18 18 18 18 18 18 17 17 16 16 15 15 15 16 16 16 17 17 18 18 18 18 17 17 17 16 16 16 16 16 16 15 15 14 14 13 13 12 11 10 9 9 9 9
8 9 9 9 9 10 10 10 10 10 10 9 9 10 11 10 10 9 10 11 13 14 14 13 13 13 13 14 14 15 15 16 16 16 17 17 17 17 18 18 18 18 18 18 18 18 18 18 17 17 16 16 16 15 15 15 15 15 15 16 16 16 16 16 16 16 16 15 15 15 15 15 14 14 14 13 12 12 11 10 9 9 9 9 10 10
10 10 10 10 9 9 9 8 9 9 9 8 8 9 11 11 10 10 11 13 14 14 14 14 14 14 14 14 14 15 16 17 17 17 17 17 18 18 18 18 18 19 19 18 18 18 18 18 17 17 17 16 15 15 14 14 14 14 14 14 14 14 14 14 14 14 14 14 14 14 14 14 13 13 12 12 11 11 10 10 9 10 10 10 11 11
9 9 8 8 8 8 8 8 7 8 9 9 9 10 11 11 11 11 12 13 14 14 14 14 15 16 16 15 15 15 16 17 18 18 18 18 18 17 18 18 18 19 19 18 18 18 18 17 17 17 16 15 14 14 13 13 12 12 12 12 12 12 12 13 13 13 13 13 13 13 13 13 12 12 12 11 11 10 10 10 10 10 11 11 11 11
7 7 6 7 7 7 7 7 8 8 10 10 10 10 11 11 11 11 12 13 14 14 14 14 15 16 17 17 15 15 16 17 18 18 18 18 17 17 17 18 18 19 18 18 18 18 17 17 16 16 15 14 13 12 12 11 11 11 11 11 11 11 11 11 11 12 12 12 12 12 12 12 12 11 11 11 10 10 10 10 10 10 11 11 11 11
6 6 5 6 7 8 8 8 8 9 10 10 10 10 10 11 12 12 12 13 14 15 15 14 14 14 15 16 16 14 14 15 16 17 17 17 17 17 17 17 17 18 18 18 18 17 17 16 15 15 14 13 12 11 10 10 10 10 10 10 10 10 11 11 11 11 11 12 12 12 12 12 11 11 11 10 10 10 10 10 10 10 10 10 10 11
6 6 6 6 7 8 8 8 8 9 10 10 10 10 10 11 12 12 12 13 14 14 14 14 14 13 11 13 15 15 13 14 15 16 16 16 16 16 16 16 16 17 17 17 17 16 16 15 14 13 12 11 10 10 9 9 9 10 10 10 10 10 10 11 11 11 11 11 11 11 11 11 11 11 11 11 10 10 10 10 10 10 10 10 10 10
6 6 6 6 7 8 9 9 9 9 10 10 11 11 11 11 11 12 12 13 13 13 13 13 13 13 12 11 13 16 14 14 14 15 16 15 15 15 15 15 15 16 16 16 16 15 15 14 13 12 11 11 10 9 9 9 9 9 10 10 10 10 11 11 11 11 11 11 12 12 12 12 11 11 11 11 11 11 11 11 10 10 10 10 10 10
7 6 6 7 8 8 9 9 9 9 10 10 10 11 11 12 11 11 12 12 12 13 13 13 13 13 13 12 13 15 14 14 14 15 15 14 14 14 14 14 14 14 14 14 14 14 13 13 12 11 11 10 9 9 8 8 9 9 9 10 10 10 11 11 11 11 12 12 12 12 12 12 12 12 12 12 12 11 11 11 11 11 11 11 11 11
7 7 7 7 8 8 9 9 9 9 10 10 10 11 11 12 12 11 11 12 12 12 12 12 13 13 13 12 13 13 13 14 14 15 15 14 13 13 13 13 13 13 13 13 13 13 13 12 12 11 10 10 9 9 8 8 8 9 9 10 10 11 11 11 11 12 12 12 12 12 12 12 12 12 12 12 12 12 12 11 11 11 11 12 12 12
7 7 8 8 8 8 8 9 10 10 10 10 10 11 11 11 11 11 11 11 11 11 12 12 12 12 12 12 12 12 13 13 14 15 15 14 13 12 12 12 11 12 11 11 12 12 12 13 12 12 11 10 9 9 8 8 9 9 10 10 11 11 11 12 12 12 12 13 13 13 13 13 13 13 13 13 12 12 12 12 12 12 12 13 13 13
7 8 8 8 8 8 9 10 11 11 10 10 10 11 11 11 11 11 11 11 11 11 11 11 12 11 11 10 11 11 12 12 13 14 15 14 13 12 12 11 11 11 11 11 11 12 12 13 13 12 11 10 10 9 9 9 9 10 10 11 11 12 12 12 13 13 13 13 13 13 13 13 13 13 13 13 13 13 13 13 13 14 14 14 14 14
8 9 9 9 9 9 10 10 11 11 11 11 11 11 11 11 11 11 11 11 11 12 12 11 11 11 10 10 10 10 10 11 12 13 14 14 13 13 12 11 11 11 10 10 11 11 12 13 13 13 12 11 10 10 10 10 10 10 11 12 12 12 13 13 14 14 14 14 14 14 14 14 14 13 14 14 14 14 14 14 15 15 15 15 15 15
9 9 10 10 10 10 10 11 12 12 11 11 11 11 11 11 11 11 11 11 12 12 12 12 12 12 12 11 11 11 10 10 11 12 13 14 14 13 13 12 11 11 11 11 11 12 13 13 14 14 13 12 11 10 11 11 11 11 12 12 12 13 13 14 14 14 14 14 14 14 14 14 14 14 14 15 15 15 15 16 16 16 16 16 16 16
10 10 11 11 11 11 12 12 12 12 12 12 12 12 12 11 11 11 11 11 12 12 13 13 13 13 13 13 13 13 11 10 10 11 13 14 14 13 13 12 12 12 12 11 11 12 13 14 14 14 13 13 12 11 11 12 12 12 12 12 12 13 13 14 14 14 14 14 14 14 15 15 15 15 16 16 16 16 16 17 17 17 17 17 17 17
11 11 11 12 12 12 12 12 12 12 12 12 12 11 12 12 12 12 12 12 12 12 12 12 12 12 12 12 13 13 13 11 10 10 12 13 14 14 13 13 13 13 13 12 11 12 12 13 14 14 14 13 13 12 12 12 12 12 12 12 13 13 13 14 14 14 14 15 15 15 16 16 16 17 17 17 17 17 17 17 17 17 17 18 18 18
12 12 12 12 12 12 12 12 12 12 11 11 11 11 11 12 12 12 12 11 11 11 11 11 11 11 11 11 12 13 13 12 11 10 11 13 14 14 14 14 14 14 13 12 12 11 12 12 13 14 14 13 13 13 13 13 13 13 13 13 13 14 14 14 15 15 16 16 16 17 17 17 17 17 17 17 17 17 18 18 18 18 18 19 19 19
13 12 12 12 13 13 13 13 12 12 11 10 10 10 10 11 12 12 11 11 11 11 11 11 11 11 11 11 12 12 13 13 12 10 11 12 14 14 15 14 14 14 14 13 12 11 11 12 12 12 13 13 13 13 13 13 14 14 14 14 15 15 15 16 16 16 17 17 17 17 18 18 18 18 18 18 18 18 18 19 19 19 20 20 20 21
13 13 13 13 13 13 13 13 13 12 11 10 10 10 10 11 11 11 11 11 11 11 11 11 11 11 12 12 12 13 12 12 11 10 11 12 14 15 15 15 15 14 14 14 13 12 11 11 10 10 11 11 11 12 12 13 13 14 14 15 15 16 16 16 17 17 17 17 18 18 18 18 18 18 18 19 19 19 19 20 20 20 21 21 21 22
13 13 13 14 14 14 14 14 13 12 11 11 10 10 10 11 11 11 11 11 11 11 11 11 11 11 12 12 12 11 11 11 11 10 11 13 14 15 15 15 15 15 14 14 14 14 13 11 9 9 9 10 10 11 11 12 13 13 14 14 15 15 16 16 16 17 17 17 18 18 18 18 19 19 19 19 20 20 20 20 21 21 22 22 22 22
13 13 13 13 14 14 14 14 14 13 12 11 11 10 10 11 11 11 11 11 11 11 11 11 11 11 11 11 11 9 9 12 12 10 11 13 14 15 15 15 15 15 15 15 15 14 14 13 11 10 10 10 11 11 12 12 13 13 14 14 14 15 16 16 16 17 17 17 18 18 19 19 19 20 20 20 20 20 20 21 21 21 22 22 22 22
12 12 13 13 14 14 14 14 14 13 13 12 12 11 11 11 11 11 10 10 10 11 11 11 11 11 10 10 10 10 10 12 13 12 11 13 14 15 15 15 16 15 15 15 14 14 13 14 15 14 13 12 12 12 12 13 13 14 15 15 15 16 16 17 17 17 18 18 18 19 19 19 20 20 20 20 20 20 20 20 20 21 21 22 22 23
12 12 13 13 13 14 14 14 13 13 12 12 12 11 11 11 11 10 10 10 10 10 10 10 10 10 10 10 10 10 10 11 12 13 13 13 15 15 15 16 16 16 16 16 15 15 15 17 18 17 16 14 13 12 11 12 12 14 15 15 16 17 17 18 18 18 18 18 19 19 19 19 19 19 19 19 19 20 20 20 20 20 21 21 22 23
12 12 13 13 13 13 13 13 13 12 12 12 11 11 11 11 10 10 10 10 10 10 10 10 10 10 10 10 10 10 10 10 12 13 13 14 15 16 16 16 17 17 17 17 17 17 17 18 18 18 18 17 15 14 13 12 12 12 13 14 15 16 17 17 18 18 18 18 18 18 18 18 19 19 19 19 19 19 19 20 20 20 21 21 22 23
12 12 12 13 13 13 13 12 12 12 11 11 11 10 10 10 10 10 10 9 10 10 10 10 10 10 10 10 10 10 10 11 12 13 13 13 14 15 16 17 17 17 17 18 18 18 18 19 19 19 19 19 18 16 15 14 13 12 12 12 13 14 15 16 16 16 17 17 17 17 17 18 18 18 18 19 19 19 19 19 20 20 20 21 22 22
12 12 12 12 13 12 12 12 12 11 11 10 10 10 10 10 10 10 10 10 10 10 10 10 10 10 10 10 10 10 10 11 12 13 13 14 14 15 16 17 17 17 17 18 18 19 19 20 20 20 20 20 19 18 17 16 15 14 12 11 12 12 13 14 15 15 15 15 16 16 17 17 17 17 18 18 18 18 19 19 19 19 20 20 21 21
11 12 12 12 12 12 12 11 11 11 10 10 10 10 10 10 10 10 10 10 10 10 10 10 10 10 10 10 10 11 11 12 12 13 13 14 15 16 16 17 18 18 18 18 18 19 19 20 20 21 20 20 20 19 19 18 17 15 14 12 11 11 11 12 13 13 14 14 15 15 16 16 16 17 17 17 17 18 18 18 18 18 19 19 20 20
11 11 12 12 12 12 11 11 10 10 10 10 10 10 10 10 10 10 10 10 10 10 10 9 9 9 9 10 10 11 11 12 12 13 14 15 15 16 17 18 18 18 18 18 18 18 18 19 20 20 21 20 20 20 20 19 18 17 15 13 12 11 11 11 12 12 13 13 14 14 15 15 15 16 16 16 16 17 17 17 17 18 18 18 19 19
11 11 12 12 12 11 11 10 10 10 10 10 10 10 10 10 10 10 10 10 10 10 9 9 9 9 10 10 10 11 12 12 13 13 14 15 15 16 16 17 17 17 17 17 17 17 17 18 18 19 20 20 20 20 20 19 18 17 16 15 13 12 12 11 12 12 12 13 13 13 14 14 14 15 15 16 16 16 17 17 17 17 18 18 19 19
11 11 12 12 12 11 10 10 10 10 10 10 11 11 11 11 11 10 10 10 10 10 10 10 10 10 10 10 11 11 12 13 13 14 14 14 14 15 15 15 16 16 15 16 16 15 16 16 17 17 18 19 20 20 19 19 18 17 17 16 15 14 13 12 12 12 12 13 13 13 13 14 14 15 15 16 16 17 17 17 17 18 18 18 19 19
11 11 12 12 11 11 10 10 10 10 10 11 11 11 11 11 11 11 10 10 10 10 10 10 10 10 10 11 11 12 13 13 14 14 14 14 13 13 13 13 13 13 14 14 14 14 14 15 15 16 17 17 18 19 19 19 19 18 17 16 16 15 14 13 13 13 13 13 13 13 13 14 14 15 16 16 17 18 18 18 18 19 19 19 20 20
11 12 12 12 11 11 11 10 10 10 10 10 11 11 11 11 11 11 11 11 11 10 10 10 11 11 11 11 12 13 13 13 14 14 13 13 12 11 11 11 11 12 12 13 13 13 14 14 15 15 16 17 18 19 19 19 19 18 17 17 16 15 15 14 14 13 13 13 13 13 13 14 15 15 16 17 18 19 19 19 19 20 20 20 21 21
11 12 12 12 11 11 11 10 10 10 10 10 11 11 11 11 11 11 11 11 11 11 11 11 11 11 12 12 13 13 13 13 13 12 11 11 10 10 10 10 10 11 12 12 13 13 14 14 15 15 16 16 17 18 19 19 18 18 17 16 16 16 17 16 14 14 14 14 14 13 14 14 15 16 17 18 19 19 20 20 20 20 21 21 21 21
12 12 12 12 12 11 11 11 11 11 11 11 11 11 11 11 11 11 11 11 11 11 11 11 11 12 12 12 13 13 14 13 12 11 9 9 8 8 9 9 10 10 11 12 13 13 14 15 15 15 15 16 17 18 18 18 18 18 17 16 16 16 17 16 15 14 14 14 14 14 14 14 15 16 17 18 19 20 20 21 21 21 21 21 21 21
12 12 12 12 12 12 12 12 11 11 11 11 11 11 11 11 11 11 11 11 11 11 11 11 11 12 12 13 13 13 13 13 11 9 8 7 7 7 8 8 9 10 11 12 12 13 14 15 15 15 16 16 17 18 18 18 18 18 17 16 16 16 15 15 15 14 14 14 15 15 15 15 16 17 18 19 20 20 21 21 21 21 21 21 21 21
12 12 12 12 12 12 12 12 11 11 11 11 11 11 11 11 11 11 11 11 11 11 11 11 12 12 12 13 13 13 12 11 10 9 7 7 6 6 7 7 8 9 10 11 12 13 14 14 15 15 16 17 17 18 18 18 18 18 17 16 16 15 15 15 15 15 15 15 15 15 15 16 17 18 19 20 21 21 22 22 22 22 22 22 21 21
12 12 12 12 12 12 12 12 12 12 11 11 11 11 11 11 11 11 11 11 11 11 11 12 12 12 12 13 13 12 11 10 9 8 7 6 6 6 7 7 8 9 10 11 12 13 14 15 15 16 16 17 18 18 17 17 17 16 16 16 15 15 15 15 15 15 15 15 16 16 16 17 17 18 20 20 21 22 22 22 22 22 22 22 21 21
12 12 12 12 12 12 13 12 12 12 12 12 11 11 11 11 11 12 12 12 12 12 12 12 12 12 12 12 12 11 10 10 9 8 7 6 6 6 7 8 8 9 10 11 12 13 15 15 16 16 16 16 17 17 17 16 15 15 15 15 15 15 15 15 15 15 15 15 16 16 16 17 18 19 20 21 22 23 23 23 22 22 22 21 21 21
12 12 12 12 12 13 13 13 12 12 12 12 12 12 12 12 12 12 12 12 12 12 12 12 13 13 12 12 12 11 10 9 8 7 6 6 6 7 8 9 10 10 11 12 13 15 16 16 17 17 16 16 16 16 16 16 15 15 15 15 16 16 16 16 16 15 16 16 16 17 18 19 20 20 21 22 24 25 24 24 23 23 22 22 21 21
12 12 12 12 13 13 13 13 13 12 12 12 12 12 12 12 12 12 12 12 13 13 13 13 13 13 13 12 11 10 10 9 9 8 7 7 6 7 8 10 11 12 13 14 15 16 17 18 18 18 18 17 16 15 15 16 16 17 17 17 17 18 18 18 18 18 18 18 19 19 20 21 21 22 23 24 25 27 27 26 25 24 23 23 22 22
13 13 13 13 13 13 13 13 13 13 13 13 13 13 13 13 13 13 13 13 13 13 13 13 13 13 13 12 11 11 10 10 9 9 8 8 8 8 9 11 12 13 14 15 16 16 17 17 18 18 18 17 16 15 15 16 17 18 18 19 19 19 19 20 20 20 21 21 21 22 23 23 24 25 25 25 26 27 28 28 27 26 24 23 24 24
Wind_Direction
281 284 287 290 292 293 293 293 292 290 288 290 295 299 302 305 305 304 305 304 299 295 289 281 271 261 252 245 241 239 239 240 242 244 246 248 250 251 253 254 254 256 257 258 260 261 263 264 265 266 266 267 267 267 268 269 270 271 273 274 274 274 272 270 267 263 261 259 255 252 250 249 246 244 245 247 248 249 250 249 247 245 246 248 250 252
279 282 284 287 289 290 288 289 288 285 283 285 291 296 301 303 302 300 300 298 296 295 293 290 288 285 281 277 272 267 263 260 257 256 257 258 258 260 262 264 265 267 269 271 273 274 275 276 276 276 276 275 275 274 274 275 275 276 276 276 275 273 271 269 266 262 257 253 250 248 246 245 245 246 247 249 251 252 252 251 249 247 247 247 248 249
275 277 279 282 283 282 280 283 286 286 284 286 290 294 296 296 296 295 294 293 293 291 290 289 288 287 286 285 285 284 283 281 280 279 278 278 278 279 279 280 281 282 283 283 284 285 285 285 285 284 284 283 283 283 282 283 282 282 281 279 277 274 272 271 269 265 261 256 253 250 247 245 245 246 247 249 251 252 252 252 250 249 249 248 248 248
268 267 271 275 277 274 274 279 284 288 289 290 291 292 293 292 291 290 290 290 290 288 287 285 285 285 284 284 284 283 283 283 283 283 283 284 284 284 285 285 285 285 286 286 286 286 286 286 286 286 286 286 286 286 287 287 288 287 286 282 279 276 273 272 270 267 263 260 256 252 248 246 245 246 247 249 250 251 251 252 252 251 251 250 250 249
258 257 265 271 271 271 276 280 284 288 291 291 291 290 290 290 289 288 287 288 287 286 285 284 283 283 283 283 283 283 282 282 282 282 283 283 283 284 284 285 285 286 286 287 287 286 286 285 285 285 285 285 286 286 287 288 289 288 287 283 280 276 273 270 268 265 262 261 259 255 251 248 247 247 248 250 251 251 252 252 253 253 253 253 252 252
258 259 268 272 272 274 281 284 286 288 291 291 290 289 289 288 287 287 287 286 286 285 285 284 283 283 283 283 284 284 284 284 284 284 284 284 284 285 285 286 286 287 287 287 287 286 285 284 284 284 284 284 283 284 285 286 286 286 285 282 280 277 273 270 266 263 261 260 259 258 256 253 252 252 252 253 254 254 255 255 255 255 255 255 255 254
266 269 274 276 277 279 283 285 286 288 290 290 290 289 289 288 287 287 287 286 285 285 285 285 284 285 284 285 286 287 287 287 288 287 287 287 287 287 288 288 289 289 289 289 288 287 285 284 284 283 282 282 282 281 282 282 282 282 281 280 278 276 274 271 268 263 259 257 257 257 257 257 257 257 258 259 259 259 258 258 258 258 258 257 256 254
269 273 275 275 278 282 283 284 285 287 288 288 288 289 290 289 289 288 287 286 285 285 285 286 286 286 286 287 288 289 290 290 290 290 290 290 290 290 291 291 291 291 291 290 289 288 286 285 284 283 282 281 280 280 279 279 279 278 278 276 275 274 273 272 269 265 261 257 255 255 256 258 259 261 263 263 263 262 261 260 260 260 259 257 255 254
269 272 275 274 276 280 284 285 285 286 287 286 285 286 288 290 291 291 290 288 286 285 286 286 287 288 288 288 289 289 290 289 290 290 291 291 292 292 292 293 293 292 292 291 290 289 288 287 286 285 283 282 281 280 279 277 276 275 274 273 273 272 271 270 269 266 263 260 257 257 257 259 261 263 264 264 263 262 261 260 260 259 257 254 251 249
269 270 273 275 276 278 282 284 285 287 286 285 283 281 282 284 288 291 293 291 288 287 287 287 287 288 289 290 290 290 290 290 289 290 290 291 291 292 292 292 292 292 291 290 290 289 288 288 287 287 286 285 283 282 280 278 275 273 271 270 270 269 268 268 267 265 263 261 260 259 259 260 262 263 263 263 262 261 260 258 257 255 252 247 242 240
270 271 274 275 278 280 281 281 283 285 286 284 282 279 277 277 280 284 287 287 288 289 289 289 289 289 290 291 291 291 291 291 291 291 290 291 291 291 291 292 292 291 291 290 289 289 289 289 289 289 289 289 288 286 283 279 276 272 269 267 266 265 264 264 263 262 261 260 260 260 260 260 261 262 262 262 261 259 257 255 254 253 250 245 238 235
270 273 275 276 277 279 279 279 280 282 283 283 284 284 282 278 278 279 279 279 283 287 290 291 291 291 290 291 291 292 292 291 291 291 292 292 292 292 292 292 292 292 291 291 291 291 290 291 291 292 293 293 292 289 285 281 276 272 268 265 262 261 260 259 258 257 257 257 257 257 258 259 260 260 260 259 258 256 254 252 251 251 251 249 244 240
272 273 275 276 275 275 274 275 277 278 277 274 271 273 278 283 285 284 283 283 285 289 292 294 293 292 291 291 292 293 293 293 293 293 293 293 293 294 294 294 293 293 293 292 292 292 292 293 293 294 294 294 293 290 285 281 276 272 267 263 260 258 256 254 253 253 253 253 253 254 255 256 257 258 258 256 255 253 251 248 247 248 250 252 252 250
271 272 272 271 271 270 269 269 271 274 271 269 268 273 281 288 291 290 289 288 289 293 296 295 295 296 295 294 294 294 295 295 295 295 296 296 296 296 297 296 295 294 294 294 294 294 294 295 295 295 294 293 291 288 283 279 274 270 265 262 258 255 252 250 249 249 249 249 250 251 252 253 254 255 255 254 253 253 252 249 248 248 250 253 255 255
265 267 267 265 265 267 267 268 269 271 273 276 279 285 290 292 293 292 290 289 292 296 297 296 297 298 299 298 298 298 298 297 297 297 297 298 299 299 299 298 296 295 295 295 295 295 296 295 295 295 294 292 289 285 280 276 271 267 263 259 255 252 250 247 246 245 245 246 246 247 248 249 249 250 250 251 252 254 255 255 255 256 256 258 259 259
260 261 261 266 268 269 270 272 274 276 280 283 286 289 289 289 291 292 291 291 294 297 298 298 299 299 299 301 302 301 300 299 297 297 298 299 300 301 300 299 297 296 296 296 296 296 296 295 295 294 293 290 287 282 277 272 268 264 261 257 254 251 248 246 244 244 244 243 244 244 244 244 245 245 247 248 251 254 257 259 261 263 264 265 265 265
259 261 264 271 273 274 276 278 279 281 284 287 290 291 290 290 293 295 296 296 297 298 299 300 301 300 298 299 302 304 303 301 299 298 299 300 301 302 301 300 298 297 297 297 296 296 296 295 294 293 291 288 284 280 274 269 265 261 258 255 253 250 248 246 244 243 242 241 241 241 241 241 241 243 245 247 250 253 256 259 262 264 266 267 267 267
263 266 271 274 275 277 281 283 283 285 287 290 292 294 295 296 297 298 297 297 297 298 299 300 300 301 300 293 296 302 306 304 301 300 301 302 303 303 303 301 300 298 298 298 297 297 296 295 293 291 288 285 281 277 272 267 263 259 256 253 250 248 246 244 243 241 239 238 238 237 237 238 239 241 243 246 249 252 255 257 260 262 264 265 265 264
270 271 273 273 276 280 284 284 284 285 286 287 291 294 296 298 299 299 297 297 297 297 298 298 299 300 300 296 296 300 305 305 303 302 302 303 304 305 304 304 302 300 300 300 299 298 297 294 291 289 286 283 280 276 272 267 262 258 254 251 249 246 245 243 241 239 238 237 236 235 236 236 238 240 243 246 248 251 254 257 259 262 264 264 264 264
273 274 273 274 278 282 283 281 281 282 284 287 291 294 295 297 299 299 298 297 297 297 298 298 299 299 299 299 300 302 304 305 305 303 303 305 307 307 306 306 304 302 302 301 300 299 297 294 291 288 286 283 280 277 273 268 262 257 253 250 247 245 244 242 240 239 237 236 236 236 236 238 239 242 244 247 250 253 255 258 261 263 265 265 265 265
275 275 271 271 274 275 274 276 279 282 286 290 293 294 294 296 298 297 297 297 297 297 298 297 297 298 299 300 301 303 304 306 306 305 305 306 309 310 309 308 306 305 304 303 301 298 295 293 291 289 286 284 282 279 274 269 263 257 253 249 247 244 243 241 240 239 238 238 238 238 239 241 243 245 248 251 253 256 259 262 264 265 266 266 266 266
278 278 276 275 273 271 271 275 280 284 289 292 293 294 295 297 298 298 298 300 300 301 300 299 298 299 300 300 301 303 305 306 307 306 307 310 312 312 311 310 308 306 305 304 301 297 293 291 290 289 287 285 283 280 276 270 263 257 253 249 246 244 243 242 241 240 240 240 240 241 242 244 246 249 252 255 258 261 263 265 266 267 267 267 267 267
284 285 283 281 278 277 278 280 284 288 292 293 294 295 296 298 299 301 302 304 305 304 304 304 304 304 303 303 303 305 306 307 307 307 308 311 311 311 312 312 309 307 306 305 302 297 292 289 288 288 287 285 283 280 276 270 264 258 254 250 247 246 244 243 243 242 243 243 244 245 247 248 251 254 257 260 262 264 266 267 267 267 267 267 267 267
289 288 287 285 284 284 285 285 287 291 294 295 294 294 294 296 299 302 304 306 308 308 310 310 311 313 315 315 315 315 315 313 311 309 308 310 310 310 311 311 309 307 306 306 303 297 292 289 287 287 286 285 283 280 275 270 265 261 257 254 251 249 248 247 247 247 248 248 249 251 253 255 257 260 262 264 265 266 267 268 269 269 269 269 269 268
290 289 288 288 287 288 288 288 290 292 295 296 296 295 296 297 300 302 305 307 309 311 314 315 317 319 321 322 321 319 319 319 314 310 308 308 309 310 310 312 310 309 308 307 303 298 294 291 288 287 286 284 282 279 275 272 268 264 261 258 256 254 254 253 253 254 255 255 256 258 259 261 262 263 264 266 267 268 269 270 270 270 271 271 271 270
289 288 288 287 287 287 287 288 289 291 294 295 295 296 298 300 303 305 308 310 311 313 315 315 316 317 318 318 315 314 317 319 316 310 308 308 310 311 311 313 313 311 309 309 306 301 297 293 290 288 286 285 283 279 276 273 270 267 264 262 260 258 258 257 258 258 259 259 260 261 262 263 264 265 266 268 269 270 271 272 272 273 274 274 274 273
288 287 286 286 286 286 286 286 287 288 290 292 293 294 296 299 302 305 308 309 309 309 310 308 309 311 311 310 309 311 314 318 319 314 309 309 311 313 314 315 316 315 312 312 309 305 300 296 293 291 289 286 284 280 277 274 271 269 267 264 262 261 260 260 260 260 260 261 262 263 264 265 267 268 269 270 272 273 274 275 276 276 277 277 277 277
289 289 288 287 287 287 287 287 288 289 290 291 292 293 294 297 298 300 301 301 301 302 302 302 303 303 301 297 301 307 311 316 319 319 313 310 312 313 315 317 319 318 316 314 311 307 303 300 296 294 291 289 286 282 279 276 273 271 269 267 265 264 263 263 263 263 264 264 266 267 268 269 271 272 273 274 275 276 277 278 278 279 280 280 280 280
289 289 289 289 289 289 288 289 291 292 293 294 293 292 293 293 294 294 296 297 298 298 298 301 302 301 299 300 303 307 309 312 317 320 315 313 312 313 315 318 321 321 320 316 313 311 310 306 302 298 296 293 290 286 283 280 277 274 273 272 270 269 268 268 268 268 268 269 270 272 273 274 275 276 276 277 278 279 280 280 281 281 282 282 282 282
287 288 288 288 288 289 289 291 293 295 296 296 295 293 292 292 291 291 293 295 296 296 297 298 299 299 299 302 306 308 307 306 313 319 315 313 312 313 314 318 321 323 323 321 321 321 318 311 306 304 302 299 297 295 291 287 283 280 278 277 275 274 273 273 273 273 273 274 275 275 276 277 278 278 279 279 280 281 281 282 282 282 283 282 282 282
286 286 285 285 286 288 290 292 294 296 297 296 295 293 291 291 290 290 290 292 294 295 295 295 296 297 298 299 298 297 296 300 309 317 313 311 310 311 314 317 320 323 325 324 324 323 320 310 305 303 302 301 300 298 296 293 290 286 284 282 280 279 278 277 277 277 277 277 277 278 278 279 279 279 280 280 281 281 281 282 282 282 282 282 282 282
281 281 282 283 284 286 288 290 292 293 294 293 292 291 290 288 288 288 288 289 291 292 293 293 294 295 296 295 292 289 290 299 306 312 312 310 309 310 314 317 319 322 324 323 320 317 313 307 305 303 301 299 297 295 292 290 289 288 286 285 283 282 280 280 279 279 279 279 279 279 279 279 279 280 280 280 281 281 281 281 281 281 281 281 281 281
277 278 280 282 283 284 286 287 288 289 290 289 289 288 287 286 285 285 285 285 286 288 289 290 291 292 292 292 292 293 296 299 303 307 311 310 310 311 314 316 318 319 320 319 317 313 308 307 306 305 303 301 298 295 290 286 284 284 285 284 283 282 281 280 280 280 279 279 279 279 279 279 280 280 280 281 281 281 281 280 280 280 280 280 280 280
279 280 282 283 284 284 285 286 286 287 287 286 286 285 285 284 283 282 281 280 280 281 283 284 286 287 289 289 291 294 297 297 298 304 310 309 309 310 313 314 316 316 316 316 314 313 310 308 307 307 305 303 301 300 296 290 285 282 282 281 281 281 280 280 279 279 279 279 279 279 279 279 280 280 281 281 281 280 280 280 279 279 279 279 279 279
282 283 284 284 285 285 285 286 286 287 286 285 285 284 283 282 281 280 278 277 276 276 276 277 280 282 286 288 291 294 295 293 296 302 308 308 308 309 310 311 312 313 313 312 311 310 309 308 307 306 306 305 303 302 299 296 292 288 284 281 279 278 277 277 276 276 277 277 277 278 278 279 279 280 280 280 280 279 279 279 278 278 278 278 277 278
285 285 285 285 285 285 286 286 287 287 287 285 284 282 281 279 279 277 276 275 274 273 273 274 275 278 282 286 292 296 297 296 298 302 306 307 307 308 307 308 309 310 309 309 308 307 307 306 305 305 305 305 305 303 300 297 296 295 291 286 279 275 273 272 272 272 273 274 274 275 276 277 278 278 278 278 278 278 278 277 277 277 276 276 276 276
286 286 286 286 286 286 287 287 287 287 287 285 283 280 278 277 277 277 277 276 275 274 273 273 274 276 279 283 288 293 297 298 300 301 303 304 305 305 305 306 306 306 306 305 305 305 304 304 305 305 305 304 304 303 302 300 299 298 297 294 286 277 270 268 268 268 268 270 271 272 273 274 275 276 276 276 277 277 277 277 277 276 276 275 275 275
285 285 285 285 286 286 287 287 286 286 285 283 281 279 277 277 277 277 278 278 277 276 275 275 275 276 279 282 286 289 293 296 298 300 302 303 304 304 303 304 304 303 303 302 302 302 302 302 303 303 304 303 302 302 303 303 303 302 302 299 294 285 276 269 265 264 265 267 269 270 271 272 274 275 275 277 277 278 278 278 278 277 277 276 275 275
283 282 282 283 285 286 286 285 284 283 281 279 278 277 277 277 278 278 279 279 279 278 278 278 278 279 282 284 287 290 293 295 298 300 301 302 303 303 302 302 301 301 301 300 300 300 300 300 300 301 302 303 303 303 304 304 305 306 304 301 297 291 286 279 273 269 268 268 269 270 271 272 273 275 276 278 279 280 280 280 280 280 280 279 279 278
282 281 281 282 284 285 285 284 282 280 277 276 275 276 277 278 278 279 280 280 280 280 281 281 281 283 285 287 290 293 295 297 299 301 302 302 303 303 302 301 301 301 300 300 300 300 300 301 301 302 303 304 305 305 307 306 307 308 308 306 304 300 295 289 283 278 274 273 272 272 273 273 274 275 277 278 280 281 281 282 282 283 282 282 281 281
282 282 281 282 283 284 283 281 279 277 275 275 276 277 277 278 279 280 280 280 280 280 281 281 283 284 286 288 291 294 298 300 301 302 303 304 304 304 303 302 302 303 303 303 303 303 303 304 305 306 306 307 306 307 307 307 308 309 310 309 307 303 297 293 290 286 282 279 276 275 275 275 275 276 276 277 279 280 281 282 283 283 283 283 282 281
282 282 282 282 282 282 281 280 277 275 274 274 274 274 276 278 279 280 280 280 280 280 282 283 285 286 289 292 295 298 301 303 304 305 305 305 305 305 305 305 306 307 308 308 308 308 307 307 307 307 308 308 308 307 306 307 309 310 311 310 307 302 297 295 294 292 290 287 284 281 279 277 276 276 275 276 277 278 279 280 281 281 282 282 282 282
282 281 281 281 281 281 280 279 277 275 273 272 271 272 273 275 276 277 278 278 278 280 283 284 286 289 293 297 300 302 304 304 304 304 304 304 304 306 307 309 311 312 312 313 313 312 311 311 309 308 308 308 308 307 307 310 311 311 312 312 311 308 306 302 300 297 295 292 290 287 284 281 279 278 277 276 276 277 277 278 279 279 280 280 280 281
279 279 279 279 279 279 278 276 275 274 273 271 270 271 272 273 273 274 275 276 276 278 280 283 286 289 293 296 299 302 303 303 303 303 302 302 303 305 308 311 313 314 314 317 316 314 313 312 311 311 311 309 308 308 309 312 313 313 312 312 312 309 306 304 303 301 298 296 294 292 290 287 284 282 280 279 278 278 279 279 279 279 279 280 280 280
277 277 277 277 276 275 274 273 273 274 273 273 272 272 272 272 273 273 273 274 274 275 276 280 284 288 291 295 298 302 304 305 305 304 304 304 305 308 311 315 317 318 317 317 317 316 315 313 312 312 312 310 308 308 310 312 313 313 312 312 311 308 305 304 304 304 302 300 299 298 296 294 292 289 287 285 285 284 284 284 284 284 283 282 281 281
274 274 274 274 275 274 274 275 275 274 273 272 272 272 272 272 272 272 272 273 273 274 275 279 283 287 291 296 299 301 303 304 304 305 306 309 312 316 318 321 322 322 322 320 318 316 314 313 313 312 311 310 309 309 310 311 312 312 312 311 310 308 307 306 306 306 305 303 302 302 301 300 298 297 295 293 291 290 289 289 289 289 288 287 285 284
270 270 271 272 273 273 274 275 276 275 274 273 272 271 271 272 272 271 271 271 271 273 275 278 281 285 289 293 296 297 297 298 298 300 304 308 314 321 325 326 326 324 322 320 318 316 314 313 313 312 311 309 309 310 311 311 311 310 310 310 309 308 307 307 308 307 306 305 304 304 304 304 303 301 300 298 296 294 293 292 292 291 291 290 288 287
269 269 269 270 271 272 272 274 274 275 274 273 272 271 270 270 270 270 269 270 270 272 273 276 279 282 286 289 290 291 290 288 287 290 295 302 310 318 322 325 325 323 320 318 317 316 314 313 313 312 311 310 309 310 312 312 311 311 310 310 310 309 309 309 310 309 308 307 307 308 308 309 308 306 305 303 301 299 297 297 295 294 293 292 291 289
270 270 270 270 271 272 272 273 273 274 273 273 272 270 268 268 268 268 268 268 269 271 272 274 277 281 284 287 287 286 283 279 276 277 281 290 301 310 316 320 322 323 323 320 318 317 316 315 314 313 312 312 312 312 315 315 314 313 313 312 312 312 313 313 314 314 313 313 313 313 313 312 311 310 308 306 305 304 302 301 299 297 296 296 295 293
270 269 270 270 271 272 272 273 273 272 272 272 271 270 268 266 266 265 266 267 268 270 271 274 277 280 283 284 283 281 276 271 267 267 272 280 291 304 313 319 324 326 327 325 323 322 320 320 318 316 315 314 314 314 314 315 315 315 314 314 315 316 316 316 317 318 317 317 316 315 314 313 312 310 309 306 305 305 304 302 301 300 299 298 298 296
269 268 268 269 270 270 271 272 272 272 271 270 270 269 267 266 265 264 264 265 266 268 270 273 275 277 279 279 277 275 270 265 262 263 269 276 286 298 308 316 322 326 328 328 327 326 325 323 321 318 316 315 315 315 313 313 313 314 314 314 315 316 315 315 316 317 316 315 314 312 311 310 309 308 307 304 303 302 302 301 300 299 298 298 297 295